#timestamp,LO_Frequency,Hit,StdDev 
1510311615.9,286046995.5,N
1510311635.7,286046995.4,N
1510311655.5,286046994.7,N
1510311675.3,286046996.9,N
1510311695.2,286047000.9,N
1510311715.0,286046998.3,N
1510311715.9,286046998.3,N
1510311735.7,286046999.1,N
1510311755.6,286046995.7,N
1510311775.4,286046991.9,N
1510311795.2,286046994.5,N
1510311815.1,286046999.2,N
1510311816.0,286046999.2,N
1510311835.8,286046998.3,N
1510311855.6,286046999.6,N
1510311875.5,286047001.9,N
1510311895.3,286047001.7,N
1510311915.1,286046999.1,N
1510311935.9,286046998.6,N
1510311955.7,286047000.9,N
1510311975.5,286046998.5,N
1510311995.3,286046999.6,N
1510312015.2,286047000.1,N
1510312035.0,286046999.0,N
1510312035.9,286046999.0,N
1510312055.7,286046999.1,N
1510312075.6,286046999.3,N
1510312095.4,286046997.1,N
1510312115.2,286046996.0,N
1510312135.1,286046997.8,N
1510312136.0,286046997.8,N
1510312155.8,286046993.7,N
1510312175.6,286046994.5,N
1510312195.5,286046997.9,N
1510312215.3,286046996.3,N
1510312235.1,286046993.7,N
1510312255.9,286046995.8,N
1510312275.7,286046992.3,Y
1510312295.5,286046996.4,P
1510312315.4,286046996.1,P
1510312335.2,286047000.8,N
1510312355.0,286047000.6,N
1510312355.9,286047000.6,N
1510312375.8,286047000.8,N
1510312395.6,286047001.0,N
1510312415.4,286047000.6,N
1510312435.2,286047004.2,N
1510312455.1,286047005.8,N
1510312456.0,286047005.8,N
1510312475.8,286047001.4,N
1510312495.6,286047004.6,N
1510312515.5,286047003.5,N
1510312535.3,286047001.5,N
1510312555.1,286047000.8,N
1510312575.9,286046998.8,N
1510312595.7,286046998.9,N
1510312615.5,286046996.6,N
1510312635.4,286047003.2,N
1510312655.2,286047001.3,N
1510312675.0,286047000.7,N
1510312675.9,286047000.7,N
1510312695.8,286047002.0,N
1510312715.6,286047005.7,N
1510312735.4,286047005.0,N
1510312755.2,286047001.7,N
1510312775.1,286046998.1,N
1510312776.0,286046998.1,N
1510312795.8,286046996.3,N
1510312815.6,286046995.7,N
1510312835.5,286046997.9,N
1510312855.3,286046999.5,N
1510312875.1,286046997.1,N
1510312895.9,286046997.0,N
1510312915.7,286046998.4,N
1510312935.5,286046996.5,N
1510312955.4,286046997.1,N
1510312975.2,286046999.3,N
1510312995.0,286047000.4,N
1510312995.9,286047000.4,N
1510313015.8,286047001.1,N
1510313035.6,286046999.6,N
1510313055.4,286046998.3,N
1510313075.2,286046999.3,N
1510313095.1,286046996.2,N
1510313096.0,286046996.2,N
1510313115.8,286046999.6,N
1510313135.6,286046999.5,N
1510313155.5,286046999.3,N
1510313175.3,286046995.8,N
1510313195.1,286046996.9,N
1510313215.9,286046998.9,N
1510313235.7,286046999.5,N
1510313255.5,286046993.6,N
1510313275.4,286046995.9,N
1510313295.2,286046993.5,Y
1510313315.0,286046997.1,P
1510313315.9,286046997.1,P
1510313335.8,286046997.9,P
1510313355.6,286046997.4,Y
1510313375.4,286047000.7,P
1510313395.3,286046997.4,N
1510313415.1,286046995.2,P
1510313416.0,286046995.2,N
1510313435.8,286046997.9,N
1510313455.7,286046994.9,N
1510313475.5,286046993.6,Y
1510313495.3,286046996.6,P
1510313515.2,286046998.9,P
1510313535.9,286047001.2,N
1510313555.7,286047002.9,N
1510313575.6,286047003.4,N
1510313595.4,286046999.8,N
1510313615.2,286047004.0,N
1510313635.1,286046996.5,N
1510313636.0,286046996.5,N
1510313655.8,286046998.3,N
1510313675.6,286046999.1,N
1510313695.4,286046999.4,N
1510313715.3,286047000.7,N
1510313735.1,286047000.2,N
1510313755.8,286047000.9,N
1510313775.7,286047000.1,N
1510313795.5,286047002.1,N
1510313815.3,286047007.6,Y
1510313835.2,286047006.6,P
1510313855.9,286047008.6,N
1510313875.7,286047005.7,N
1510313895.6,286047007.1,N
1510313915.4,286047006.5,N
1510313935.2,286047005.1,N
1510313955.1,286047004.1,N
1510313956.0,286047004.1,N
1510313975.8,286047003.6,N
1510313995.6,286047004.3,N
1510314015.4,286047004.3,N
1510314035.3,286047002.3,N
1510314055.1,286047007.6,Y
1510314075.8,286047004.0,P
1510314095.7,286047005.7,P
1510314115.5,286047004.1,P
1510314135.3,286047001.3,N
1510314155.2,286047001.0,N
1510314175.0,286047002.3,N
1510314175.9,286047002.3,N
1510314195.7,286047004.4,N
1510314215.6,286047002.9,N
1510314235.4,286047004.2,N
1510314255.2,286047003.4,N
1510314275.1,286047002.5,N
1510314276.0,286047002.5,N
1510314295.8,286047002.6,N
1510314315.6,286047004.4,Y
1510314335.5,286047001.5,P
1510314355.3,286047005.6,P
1510314375.1,286047005.4,P
1510314395.9,286047002.2,N
1510314415.7,286047001.5,N
1510314435.5,286047002.5,N
1510314455.3,286047002.4,N
1510314475.2,286047002.7,N
1510314495.0,286047000.8,N
1510314495.9,286047000.8,N
1510314515.7,286046999.7,N
1510314535.6,286047002.7,N
1510314555.4,286047002.2,N
1510314575.2,286047003.1,N
1510314595.1,286047002.6,N
1510314596.0,286047002.6,N
1510314615.8,286047002.1,N
1510314635.6,286046999.8,N
1510314655.5,286046998.7,N
1510314675.3,286047001.0,N
1510314695.1,286046998.8,N
1510314715.9,286047000.7,N
1510314735.7,286046998.6,N
1510314755.5,286047002.0,N
1510314775.3,286047002.3,N
1510314795.2,286046998.6,N
1510314815.0,286047000.4,N
1510314815.9,286047000.4,N
1510314835.7,286047002.8,N
1510314855.6,286046999.1,N
1510314875.4,286047000.2,N
1510314895.2,286047002.8,N
1510314915.1,286047000.5,N
1510314916.0,286047000.5,N
1510314935.8,286046999.2,N
1510314955.6,286046999.5,N
1510314975.5,286046999.6,N
1510314995.3,286046997.7,N
1510315015.1,286047002.3,N
1510315035.9,286047003.6,N
1510315055.7,286047003.9,N
1510315075.5,286047001.9,N
1510315095.3,286047002.6,N
1510315115.2,286047002.1,N
1510315135.0,286047001.6,N
1510315135.9,286047001.6,N
1510315155.7,286047000.1,N
1510315175.6,286047002.5,N
1510315195.4,286047001.8,N
